www.pogodaiklimat.ru
ПОГОДА в Тырговиште

Архив погоды в Тырговиште (Румыния)

Время
(UTC), дата
15 15.07
18 15.07
21 15.07
00 16.07
03 16.07
06 16.07
09 16.07
12 16.07
15 16.07
18 16.07
21 16.07
00 17.07
03 17.07
06 17.07
09 17.07
12 17.07
18 17.07
21 17.07
00 18.07
03 18.07
06 18.07
09 18.07
12 18.07
15 18.07
18 18.07
21 18.07
00 19.07
03 19.07
06 19.07
09 19.07
12 19.07
15 19.07
18 19.07
21 19.07
00 20.07
03 20.07
06 20.07
09 20.07
12 20.07
18 20.07
21 20.07
00 21.07
03 21.07
06 21.07
12 21.07
15 21.07
18 21.07
21 21.07
00 22.07
03 22.07
06 22.07
09 22.07
12 22.07
Ветер
(напр.,м/с)
Видим. Явления Облачность Т
(С)
Тd
(С)
f
(%)
Тe
(С)
Тes
(С)
Комфортность P
(гПа)
Po
(гПа)
Тmin
(С)
Tmax
(С)
R
(мм)
R24
(мм)
S
(см)
СВ 1-3 {6} 20 км 4/3 600 м
[Cu hum Ac lent]
+37.2 +8.4 17 +35 +39 очень жарко 1011.0 978.4
В 3-5 {6} 20 км 3/0
[Ac lent Ci fib]
+34.0 +10.4 24 +33 +33 жарко 1011.8 978.8 +28.3 +37.5 0
СЗ 3-4 {4} 20 км ясно +24.4 +14.1 53 +27 +27 жарко 1013.7 979.6
СЗ 3-3 {4} 20 км ясно +22.3 +12.7 55 +25 +25 комфорт 1014.3 979.9 0
СЗ 3-4 {5} 50 км 1/0
[Ac lent]
+21.7 +12.3 55 +24 +24 комфорт 1014.0 979.6
СЗ 3-5 {6} 50 км ясно +28.1 +13.5 41 +30 +35 жарко 1013.7 980.1 +21.5 +34.0 0
В 1-4 {4} 50 км ясно +35.6 +12.9 26 +36 +56 опасность солнечного удара 1012.7 979.9
В 3-6 {6} 50 км 5/3 600 м
[Cu med, cong Ac lent]
+37.1 +10.3 20 +36 +43 очень жарко 1011.1 978.5 0
В 8-14 {14} 10 км 9/5 600 м
[Cb calv Ac As]
+32.4 +16.1 38 +35 +35 душно 1012.5 979.3
С 1-2 {5} 20 км 8/3 600 м
[Cb calv Ac As]
+28.2 +17.3 52 +32 +32 душно 1013.2 979.6 +28.2 +38.5 0
СЗ 4-5 {5} 20 км 3/0
[Ac lent]
+25.5 +17.2 60 +29 +29 душно 1013.8 979.8
СЗ 3-4 {5} 20 км ясно +24.1 +15.2 58 +27 +27 жарко 1013.8 979.7 0
С 3-4 {4} 20 км ясно +22.0 +15.5 67 +26 +26 душно 1014.3 980.0
СЗ 3-5 {5} 20 км ясно +28.9 +16.5 47 +32 +38 душно 1014.9 981.3 +22.0 +28.9 0
В 2-4 {5} 20 км 1/1 600 м
[Cu med, cong]
+34.5 +15.4 32 +36 +52 опасность солнечного удара 1014.2 981.3
Ю 2-5 {6} 20 км 4/4 600 м
[Cb calv]
+37.6 +12.3 22 +37 +47 очень жарко 1012.7 980.1 0
С 4-6 {7} 20 км {гроза} 4/0
[Ac lent Ci fib]
+26.5 +16.7 55 +30 +30 душно 1014.1 980.2 +26.5 +38.8 0
С 3 20 км н/о +25.5 +16.7 58 +29 +29 душно 1015.6 981.6 0.1
С 3-4 {4} 20 км 8/0
[Ac As Ci fib]
+22.4 +16.4 69 +27 +27 душно 1016.2 981.8 0
СЗ 3-5 {5} 20 км 4/0
[Ac lent Ci fib]
+22.1 +15.2 65 +26 +26 душно 1016.0 981.6
СЗ 3-4 {4} 20 км 4/0
[Ac cast]
+28.6 +16.1 47 +32 +36 душно 1016.5 982.8 +21.6 +28.6 0
В 2-5 {7} 20 км 3/3 600 м
[Cb calv]
+34.3 +14.2 30 +35 +47 очень жарко 1015.4 982.4
С 5-8 {13} 17 км гроза без осадков {ливн. дождь} 10/6 600 м
[Cb cap Ac As]
+26.6 +18.1 60 +31 +32 душно 1016.5 982.6 0.5 0
В 2-3 {6} 20 км {гроза} 9/4 600 м
[Cb calv Ac As]
+28.9 +17.8 51 +33 +34 очень душно 1015.5 981.9
С 3-4 {7} 19 км {гроза} 9/4 600 м
[Cb calv Ac As]
+24.4 +19.5 74 +30 +30 очень душно 1017.0 982.8 +24.1 +36.9 0
СЗ 5-8 {9} 18 км гроза без осадков {ливн. дождь} 9/4 600 м
[Cb cap Ac As]
+21.7 +18.9 84 +27 +27 душно 1018.2 983.7 0.0
СЗ 2-4 {5} 20 км {гроза, ливн. дождь} 6/0
[Ac As]
+21.1 +18.4 85 +25 +25 комфорт 1017.2 982.7 0
СЗ 2-3 {5} 18 км в посл. час гроза 9/4 600 м
[Cb calv Ac As]
+19.8 +17.6 87 +23 +23 комфорт 1017.9 983.2
СЗ 3-4 {6} 20 км {гроза} 3/0
[Ac lent]
+24.9 +18.1 66 +29 +33 душно 1017.5 983.4 +19.3 +25.2 0.5 0
Ю 1-4 {5} 20 км 3/1 600 м
[Cu med, cong Ac lent]
+31.2 +16.8 42 +35 +49 очень душно 1016.1 982.7
ЮЗ 3-5 {6} 20 км 6/5 600 м
[Cb calv Ac cuf]
+33.1 +15.6 35 +35 +41 душно 1014.1 981.0 0
С 2-4 {6} 16 км в посл. час гроза {ливн. дождь} 8/4 600 м
[Cb cap Ac As]
+24.2 +20.9 82 +30 +32 очень душно 1014.4 980.3 13
СВ 2-3 {3} 20 км {гроза, ливн. дождь} 5/1 600 м
[Cb calv Ac lent Ci sp]
+24.7 +18.1 67 +29 +29 душно 1013.6 979.6 +20.9 +35.3 0
СЗ 3-5 {5} 17 км ясно +21.4 +19.2 87 +26 +26 душно 1014.4 980.0
С 3-3 {4} 18 км 4/0
[Ac trans]
+20.6 +18.2 86 +25 +25 комфорт 1014.2 979.7 0
С 3-3 {4} 16 км 3/0
[Ac lent]
+18.9 +17.1 89 +20 +20 1013.3 978.6
С 2-4 {4} 20 км 8/0
[Ac As]
+22.9 +17.9 73 +28 +31 душно 1013.2 979.0 +18.9 +24.6 13.0 0
В 2-5 {5} 20 км 8/0
[Ac As]
+27.8 +13.7 42 +30 +37 жарко 1012.4 978.7
В 2-4 {5} 20 км 3/3 600 м
[Cu med, cong]
+30.8 +14.6 37 +33 +44 душно 1010.2 977.0 0
В 3-5 {5} 20 км 10/0
[Ac lent Cs]
+30.2 +14.8 39 +32 +32 жарко 1008.1 974.9 +23.0 +33.1 0
С 3-4 {4} 20 км зарница 9/1 600 м
[Cb cap Ac As]
+25.4 +16.0 56 +29 +29 душно 1008.8 975.0
СЗ 3-5 {7} 20 км слаб. ливневой дождь 10/4 600 м
[Cb cap Ac As]
+20.9 +18.8 88 +26 +26 душно 1010.5 976.1 0.8 0
С 2-5 {7} 20 км {гроза, ливн. дождь} 10/10 600 м
[Sc]
+19.8 +17.5 87 +23 +23 комфорт 1009.1 974.7 14
СЗ 1-2 {3} 18 км {гроза, ливн. дождь} 6/0
[Ac As]
+21.8 +17.9 79 +26 +31 душно 1009.6 975.4 +18.7 +30.2 14.6 0
ЮЗ 1-4 {5} 20 км {ливн. дождь} 9/5 600 м
[Cb calv Ac As]
+28.5 +17.6 52 +33 +37 очень душно 1007.7 974.3 0.0 0
З 2-7 {7} 20 км 6/5 600 м
[Cb calv Ac cuf]
+29.9 +16.9 46 +34 +36 очень душно 1006.3 973.1
СЗ 3-4 {6} 20 км 5/3 600 м
[Cb calv Ac cuf]
+26.4 +17.5 58 +31 +31 душно 1007.2 973.6 +21.8 +30.6 0
С 1-1 {3} 15 км ясно +21.2 +19.5 90 +26 +26 душно 1008.9 974.6
СЗ 2-3 {3} 13 км ясно +18.8 +17.7 93 +21 +21 комфорт 1009.8 975.2 0
СЗ 3-5 {5} 14 км 1/0
[Ac lent]
+18.0 +16.1 89 +18 +18 1009.7 975.0
Ю 1-3 {3} 20 км ясно +23.4 +17.9 71 +29 +36 душно 1009.9 975.9 +17.7 +26.4 0.0 0
ЮВ 1-4 {5} 20 км 5/3 600 м
[Cu med, cong Ac trans]
+27.3 +17.8 56 +32 +43 очень душно 1009.9 976.3
ЮВ 3-6 {6} 20 км 6/5 600 м
[Cb calv Ci fib]
+28.4 +17.7 52 +33 +39 очень душно 1008.9 975.4 0
Местоположение метеостанции Тырговиште (Румыния): широта 44.93 долгота 25.43 высота над уровнем моря 298 м.
В архиве по умолчанию представлена погода в Тырговиште за последнюю неделю. Архивные данные за месяц целиком и за предыдущие месяцы, начиная с января 2011 года, Вы можете получить, выбрав интересующий диапазон дат из раскрывающегося списка и нажав кнопку "Найти!".
*Определитесь, кто Вы:
Внимание! Время в таблицах - всемирное. Для получения местного времени необходимо прибавить поправку, которая равна 2 ч.
Некоторые строки с данными для отдельных станций могут быть выделены курсивом. Это означает, что фактические данные отсутствуют по различным причинам, а приведенные значения являются расчетными модельными данными для данного пункта наблюдений.
Смотрите также архив погоды в соседних городах и на ближайших метеорологических станциях:
Партнеры нашего сайта:      
Пояснения к столбцам:
  • Ветер - указаны скорость ветра в м/с - средняя за 10 мин, порывы в срок и между сроками (в фигурных скобках) и направление, откуда дует ветер: С - северный,
  • СВ - северо-восточный, В - восточный, ЮВ - юго-восточный, Ю - южный, ЮЗ - юго-западный, З - западный, СЗ - северо-западный.
  • Видимость - горизонтальная дальность видимости в метрах или километрах. При видимости от 1 до 10 км при отсутствии осадков обычно наблюдается дымка, при ухудшении видимости до 1 км и менее - туман. В сухую погоду видимость может ухудшаться дымом, пылью или мглою.
  • Явления - указаны атмосферные явления, наблюдавшиеся в срок или в последний час перед сроком; фигурными скобками обозначены явления, наблюдавшиеся между сроками (за 1-3 часа до срока); квадратными скобками обозначены град или гололедные отложения с указанием их диаметра в мм.
  • Облачность - указаны через наклонную черту общая и нижняя облачность в баллах и высота нижней границы облаков в метрах; квадратными скобками обозначены формы облаков: Ci - перистые, Cs - перисто-слоистые, Cc - перисто-кучевые, Ac - высококучевые, As - высокослоистые, Sc - слоисто-кучевые, Ns - слоисто-дождевые, Cu - кучевые, Cb - кучево-дождевые. Подробнее классификацию облаков см. в Атласе облаков (PDF).
  • T - Температура воздуха - температура, измеренная на высоте 2 м над землей.
  • Td - Температура точки росы - температура, при понижении до которой содержащийся в воздухе водяной пар достигнет насыщения.
  • f - Относительная влажность воздуха - влажноcть воздуха, измеренная на высоте 2 м над землей.
  • Te - Эффективная температура - температура, которую ощущает одетый по сезону человек в тени. Характеристика душности погоды. При расчете учитывается влияние влажности воздуха и скорости ветра на теплоощущения человека.
  • Tes - Эффективная температура на солнце - температура, которую ощущает человек, с поправкой на солнечный нагрев. Характеристика знойности погоды. Зависит от высоты солнца над горизонтом, облачности и скорости ветра. Ночью, в пасмурную погоду, а также при ветре 12 м/с и более поправка равна нулю.
  • P - Атмосферное давление - приведенное к уровню моря атмосферное давление.
  • Po - Атмосферное давление - измеренное на уровне метеостанции атмосферное давление.
  • Tmin - Минимальная температура - минимум температуры воздуха на высоте 2 м над землей.
  • Tmax - Максимальная температура - максимум температуры воздуха на высоте 2 м над землей.
  • R - Количество осадков - Количество выпавших осадков за период времени, мм. При наведении курсора мыши на число - период времени, за который выпало указанное количество осадков.
  • R24 - Количество осадков - Количество выпавших осадков за 24 часа, мм.
  • S - Снежный покров - Высота снежного покрова, см. При наведении курсора мыши на число - состояние снежного покрова и степень покрытия местности в баллах.